Location: Napa Junction
(38.1874°N, 122.2508°W)
Time: 15:57:22
(UTC+00:00)

Meteor 2-13 Rocket - Pass Details

Date: 08 September 2024
Orbit: 935 x 958 km, 82.5° (Epoch: 07 October)

Event Time Altitude Azimuth Distance (km) Brightness Sun altitude
Rises 13:10:31 0° 190° (S) 3,622 7.2 -7.5°
Reaches altitude 10° 13:13:01 10° 192° (SSW) 2,678 6.6 -7.1°
Maximum altitude 13:19:09 76° 278° (W) 987 4.5 -5.9°
Drops below altitude 10° 13:25:18 10° 4° (N) 2,683 7.0 -4.7°
Sets 13:27:48 0° 6° (N) 3,628 7.7 -4.2°
